Location: Cormont
(50.5693°N, 1.7416°E)
Time: 18:53:52
(UTC+00:00)

ATLAS 3B R/B - Pass Details

Date: 21 October 2019
Orbit: 1029 x 1166 km, 63.8° (Epoch: 12 November)

Event Time Altitude Azimuth Distance (km) Brightness Sun altitude
Rises 20:14:35 0° 226° (SW) 3,816 5.8 -32.6°
Reaches altitude 10° 20:17:13 10° 228° (SW) 2,851 5.1 -33.0°
Enters shadow 20:22:25 56° 244° (WSW) 1,221 3.0 -33.8°
